User: anonymous   Login
Location: Vale
(35.4830°N, 81.3830°W)
Time: 15:14:10
(UTC-05:00)
Language:

Oscar 11 - Orbit

View from above orbital plane
View from above orbital plane
View from above satellite
View from above satellite

Ground track
Ground track

The orbit data is extracted from the following two-line orbital elements,

1 14781U 84021B   15063.47113147  .00001275  00000-0  16634-3 0  9997
2 14781 097.8156 123.0717 0009784 058.4308 301.7859 14.82198595666515
Epoch (UTC): 04 March 2015 11:18:25
Eccentricity: 0.0009784
inclination: 97.8156°
perigee height: 615 km
apogee height: 629 km
right ascension of ascending node: 123.0717°
argument of perigee: 58.4308°
revolutions per day: 14.82198595
mean anomaly at epoch: 301.7859°
orbit number at epoch: 66651

The dashed part of the orbit path shows where the satellite is in the earth's shadow,  

DLR